PDT,Max TemperatureF,Mean TemperatureF,Min TemperatureF,Max Dew PointF,MeanDew PointF,Min DewpointF,Max Humidity, Mean Humidity, Min Humidity, Max Sea Level PressureIn, Mean Sea Level PressureIn, Min Sea Level PressureIn, Max VisibilityMiles, Mean VisibilityMiles, Min VisibilityMiles, Max Wind SpeedMPH, Mean Wind SpeedMPH, Max Gust SpeedMPH,PrecipitationIn, CloudCover, Events, WindDirDegrees
2011-10-1,95,78,61,44,41,35,43,28,15,29.98,29.92,29.84,10,10,10,15,5,29,0.00,0,,195
2011-10-2,93,78,64,49,46,44,47,32,19,29.98,29.91,29.85,10,10,10,18,7,24,0.00,1,,196
2011-10-3,91,75,60,48,43,36,57,35,15,29.92,29.83,29.74,10,10,10,26,12,36,0.00,2,,186
2011-10-4,77,68,60,41,40,37,49,36,26,29.80,29.75,29.70,10,10,10,20,15,28,0.00,2,,192
2011-10-5,64,58,54,53,40,24,72,52,29,29.73,29.68,29.63,10,10,9,36,21,45,0.01,3,Rain,203
2011-10-6,66,58,50,39,31,28,57,39,25,29.96,29.80,29.69,10,10,10,23,11,30,0.01,2,Rain,280
2011-10-7,71,57,43,37,30,24,60,38,18,30.08,30.03,29.97,10,10,10,10,7,,0.00,1,,241
2011-10-8,77,58,42,36,33,29,67,39,19,30.12,30.04,29.97,10,10,10,8,5,,0.00,0,,195
2011-10-9,78,61,44,33,30,28,54,34,17,30.06,29.97,29.88,10,10,10,9,4,,0.00,0,,147
2011-10-10,81,63,46,42,35,30,56,37,19,29.95,29.89,29.80,10,10,10,9,4,,0.00,0,,250
2011-10-11,84,68,51,47,39,35,61,40,19,29.97,29.92,29.88,10,10,10,9,3,,0.00,0,,213
2011-10-12,90,70,50,48,39,32,66,39,13,30.05,29.99,29.94,10,10,10,9,4,,0.00,0,,151
2011-10-13,96,79,63,34,28,21,34,16,8,30.01,29.87,29.80,10,10,10,15,4,,0.00,0,,176
2011-10-14,95,72,52,35,30,25,41,23,10,29.91,29.84,29.80,10,10,10,8,4,,0.00,0,,190
2011-10-15,95,73,53,39,33,26,45,25,9,29.91,29.85,29.80,10,10,10,15,6,,0.00,1,,193
2011-10-16,95,74,54,42,38,34,47,29,14,29.97,29.91,29.86,10,10,10,21,5,31,0.00,0,,220
2011-10-17,91,72,53,42,37,33,55,32,15,30.11,30.04,29.97,10,10,10,10,3,,0.00,0,,169
2011-10-18,89,70,52,35,28,19,47,24,8,30.12,30.03,29.94,10,10,10,10,5,,0.00,1,,189
2011-10-19,88,67,46,42,28,18,39,25,13,29.94,29.88,29.79,10,10,10,9,4,,0.00,0,,183
2011-10-20,87,66,46,41,30,21,57,29,9,30.00,29.94,29.88,10,10,10,10,4,,0.00,0,,199
2011-10-21,87,67,48,30,27,23,48,25,11,30.09,30.04,29.98,10,10,10,10,3,,0.00,0,,209
2011-10-22,89,68,48,27,23,16,39,21,9,30.14,30.07,30.01,10,10,10,9,4,,0.00,0,,171
2011-10-23,89,67,45,22,20,17,33,18,9,30.07,29.99,29.92,10,10,10,12,4,,0.00,0,,189
2011-10-24,90,70,51,35,27,22,33,22,10,29.98,29.91,29.85,10,10,10,18,7,25,0.00,4,,201
2011-10-25,84,70,55,40,36,34,51,32,17,29.90,29.84,29.74,10,10,10,18,9,25,0.00,0,,237
2011-10-26,73,60,46,39,10,-7,48,16,4,30.09,30.01,29.88,10,10,10,23,10,33,0.00,1,,314
2011-10-27,71,52,34,2,0,-2,23,13,6,30.17,30.10,30.03,10,10,10,10,5,,0.00,0,,202
2011-10-28,75,53,33,2,0,-3,21,12,5,30.21,30.14,30.08,10,10,10,9,5,,0.00,0,,211
2011-10-29,80,58,36,8,2,-3,20,12,5,30.18,30.11,30.04,10,10,10,9,3,,0.00,0,,200
2011-10-30,82,62,41,14,10,2,25,15,7,30.17,30.09,30.03,10,10,10,10,3,,0.00,0,,181
2011-10-31,82,60,39,21,16,13,36,19,8,30.09,29.98,29.87,10,10,10,12,4,,0.00,1,,201